Flag for Germany Weather past 2 weeks in Pinneberg, Schleswig-Holstein, Germany

Now
68 °F

Sprinkles. Broken clouds.


Feels Like: 68 °F
Forecast: 61 / 91 °F
Wind: 12 mph from South

Location: Hamburg-Fuhlsbuettel

Current Time: Jul 3, 2015 at 10:26:17 AM

Latest Report: Jul 3, 2015 at 9:50 AM


Visibility: N/A

Pressure: 30.24 "Hg

Humidity: 83%

Dew point: 63 °F

Location of PinnebergLocation

Historic Weather in Pinneberg — Graph

°F

Pinneberg temperature yesterday

Maximum temperature yesterday: 90 °F (at 3:20 PM)
Minimum temperature yesterday: 64 °F (at 3:20 AM)
Average temperature yesterday: 78 °F

Past Weeks' High & Low Weather Summary

 TemperatureHumidityPressure
High90 °F (Jul 2, 3:20 PM)100% (Jun 19, 4:50 AM)30.27 "Hg (Jun 19, 4:50 AM)
Low48 °F (Jun 19, 2:20 AM)26% (Jul 2, 4:20 PM)29.62 "Hg (Jun 23, 2:50 AM)
Average62 °F72%30.02 "Hg
* Reported Jun 18 9:20 AM — Jul 3 9:20 AM, Pinneberg, Weather by CustomWeather, © 2015

Note: Actual official high and low records may vary slightly from our data, if they occured in-between our weather recording intervals... More about our weather records

Advertising

Pinneberg weather history for previous 24 hours

 ConditionsComfort  
Time TempWeatherWind HumidityBarometerVisibility
9:20 AM
Fri, Jul 3
68 °FSprinkles. Broken clouds.16 mph83%30.24 "HgN/A
8:50 AM68 °FRain showers. Partly sunny.9 mph78%30.27 "HgN/A
8:20 AM73 °FScattered showers. Scattered clouds.10 mph57%30.24 "HgN/A
7:50 AM73 °FScattered clouds.7 mph57%30.21 "HgN/A
7:20 AM72 °FPassing clouds.7 mph61%30.21 "HgN/A
6:50 AM70 °FScattered clouds.3 mph64%30.21 "HgN/A
6:20 AM72 °FScattered clouds.3 mph57%30.24 "HgN/A
5:50 AM68 °FClear.7 mph73%30.24 "Hg10 mi
5:20 AM66 °FClear.2 mph68%30.24 "Hg10 mi
4:50 AM70 °FClear.5 mph60%30.24 "Hg10 mi
4:20 AM70 °FPassing clouds.6 mph57%30.21 "HgN/A
3:50 AM70 °FClear.9 mph60%30.18 "Hg10 mi
3:20 AM70 °FClear.7 mph60%30.18 "Hg10 mi
2:50 AM72 °FPassing clouds.7 mph57%30.18 "HgN/A
2:20 AM72 °FClear.9 mph57%30.18 "Hg10 mi
1:50 AM73 °FClear.9 mph50%30.18 "Hg10 mi
1:20 AM75 °FClear.9 mph47%30.18 "Hg10 mi
12:50 AM75 °FClear.10 mph47%30.18 "Hg10 mi
12:20 AM75 °FClear.12 mph47%30.15 "Hg10 mi
11:50 PM
Thu, Jul 2
77 °FClear.12 mph44%30.15 "Hg10 mi
11:20 PM77 °FClear.8 mph44%30.18 "Hg10 mi
10:50 PM77 °FSunny.9 mph44%30.18 "Hg10 mi
10:20 PM79 °FSunny.7 mph39%30.18 "Hg10 mi
9:50 PM81 °FSunny.8 mph34%30.15 "Hg10 mi
9:20 PM82 °FSunny.12 mph30%30.15 "Hg10 mi
8:50 PM84 °FSunny.13 mph29%30.15 "Hg10 mi
8:20 PM84 °FPassing clouds.14 mph29%30.15 "HgN/A
7:50 PM86 °FPassing clouds.17 mph27%30.15 "HgN/A
7:20 PM88 °FSunny.17 mph27%30.15 "Hg10 mi
6:50 PM88 °FSunny.16 mph27%30.15 "Hg10 mi
6:20 PM88 °FSunny.17 mph27%30.15 "Hg10 mi
5:50 PM90 °FPassing clouds.16 mph26%30.15 "HgN/A
5:20 PM90 °FPassing clouds.17 mph26%30.15 "HgN/A
4:50 PM90 °FPassing clouds.16 mph26%30.15 "HgN/A
4:20 PM90 °FPassing clouds.14 mph26%30.15 "HgN/A
3:50 PM90 °FPassing clouds.15 mph27%30.15 "HgN/A
3:20 PM90 °FPassing clouds.18 mph27%30.15 "HgN/A
2:50 PM88 °FPassing clouds.16 mph27%30.18 "HgN/A
2:20 PM88 °FPassing clouds.17 mph29%30.18 "HgN/A
1:50 PM86 °FSunny.18 mph31%30.18 "Hg10 mi
1:20 PM88 °FPassing clouds.17 mph29%30.18 "HgN/A
12:50 PM86 °FSunny.21 mph31%30.18 "Hg10 mi
12:20 PM84 °FPassing clouds.16 mph31%30.18 "HgN/A
11:50 AM82 °FPassing clouds.18 mph35%30.18 "HgN/A
11:20 AM81 °FPassing clouds.20 mph39%30.18 "HgN/A
10:50 AM79 °FSunny.18 mph39%30.18 "Hg10 mi
10:20 AM79 °FSunny.16 mph42%30.18 "Hg10 mi
Weather by CustomWeather, © 2015

See weather overviewHow to use our weather pages